[[{"header":{"parameterUnit":"m.s-1","parameterCategory":1,"la1":30.2991,"la2":30.254,"lo1":-89.0895,"lo2":-89.0444,"dy":0.0017,"dx":0.0017,"nx":28,"ny":28,"refTime":"2023-09-03T09:00:00:Z","depth":0,"parameterNumber":2,"parameterNumberName":"U-component_of_WINDS"},"data":[0,0,0,0,0,0,0,0,0,0,0,0,0,0,0,0,0,0,0,0,0,0,0,0,0,0,0,0,0,0,0,0,0,0,0,0,0,0,0,0,0,0,0,0,0,0,0,0,0,0,0,0,0,0,0,0,0,0,-3.778,-3.7782,0,-3.8014,-3.8017,-3.8019,-3.8065,-3.8063,-3.8061,-3.8059,-3.8295,-3.8303,-3.8311,0,0,0,0,0,0,0,0,0,0,0,0,0,-3.7366,-3.7374,-3.7779,-3.7782,-3.7785,-3.8013,-3.8017,-3.802,-3.8065,-3.8063,-3.8061,-3.8058,-3.8292,-3.8302,-3.8311,0,0,0,0,0,0,0,0,0,0,0,0,0,-3.7568,-3.7376,-3.7779,-3.7836,-3.7843,-3.8013,-3.8017,-3.8021,-3.8065,-3.8063,-3.806,-3.8057,-3.8289,-3.8301,-3.8313,-3.8442,0,0,-3.8349,-3.8355,0,0,0,0,0,0,0,0,-3.7556,-3.7583,-3.7824,-3.7832,-3.7841,-3.8007,-3.7958,-3.8162,-3.8066,-3.7981,-3.8059,-3.8056,-3.8201,-3.822,-3.827,-3.8453,-3.8463,-3.835,-3.8358,-3.8363,-3.8366,0,0,0,0,0,0,0,-3.7542,-3.7573,-3.7872,-3.7828,-3.7838,-3.7848,-3.7873,-3.7996,-3.8103,-3.7988,-3.7992,-3.8019,-3.8205,-3.8259,-3.8276,-3.8466,-3.835,-3.8361,-3.8368,-3.8373,-3.8764,-3.8767,0,0,0,0,0,0,-3.7519,-3.7561,-3.7865,-3.7879,-3.7689,-3.7857,-3.7886,-3.7956,-3.8102,-3.8122,-3.8021,-3.8021,-3.8239,-3.8262,-3.8284,-3.8444,-3.8363,-3.8374,-3.8381,-3.8761,-3.8765,-3.8768,0,0,0,0,0,0,-3.751,-3.7546,-3.7855,-3.7721,-3.7762,-3.7867,-3.7946,-3.7963,-3.8016,-3.8128,-3.8146,-3.8057,-3.8238,-3.8268,-3.8402,-3.8453,-3.8379,-3.839,-3.8757,-3.8762,-3.8767,-3.8764,0,0,0,0,0,0,-3.7498,-3.7542,-3.7593,-3.7722,-3.7769,-3.797,-3.795,-3.7969,-3.8037,-3.8038,-3.8166,-3.8184,-3.8238,-3.8384,-3.8414,-3.8468,-3.84,-3.8753,-3.876,-3.8765,-3.876,-3.8768,-3.8775,0,0,0,0,0,-3.7483,-3.7583,-3.7596,-3.7632,-3.7835,-3.7973,-3.8,-3.8061,-3.8041,-3.8093,-3.8164,-3.818,-3.8442,-3.8397,-3.8432,-3.849,-3.875,-3.8758,-3.8765,-3.8757,-3.8767,-3.8775,0,0,0,0,0,0,-3.7456,-3.7601,-3.7617,-3.7762,-3.7855,-3.7981,-3.8048,-3.807,-3.817,-3.8167,-3.8238,-3.8266,-3.8396,-3.8457,-3.8404,-3.8621,-3.8595,-3.8609,-3.8577,-3.8587,-3.8595,-3.8577,-3.841,0,0,0,0,0,-3.7467,-3.7569,-3.7689,-3.7805,-3.7852,-3.7941,-3.8004,-3.8043,-3.8142,-3.8182,-3.8263,-3.8357,-3.8461,-3.8527,-3.8629,-3.8769,-3.8796,-3.8826,-3.8833,-3.8839,-3.885,-3.8927,-3.8941,-3.8792,-3.8792,-3.8792,0,0,-3.7491,-3.7583,-3.7642,-3.7802,-3.7879,-3.7981,-3.7974,-3.8083,-3.8159,-3.8198,-3.833,-3.8392,-3.8502,-3.8639,-3.8704,-3.8694,-3.8897,-3.8848,-3.8852,-3.886,-3.8936,-3.895,-3.8962,-3.8797,-3.8796,-3.8795,0,0,-3.7586,-3.7667,-3.7772,-3.7849,-3.7966,-3.8025,-3.8049,-3.8172,-3.8216,-3.8349,-3.838,-3.8471,-3.8648,-3.8725,-3.8787,-3.8909,-3.8927,-3.894,-3.8979,-3.9053,-3.9065,-3.9075,-3.9118,-3.9132,-3.8951,-3.8951,-3.8951,0,-3.7601,-3.7757,-3.7822,-3.793,-3.7998,-3.8039,-3.8144,-3.8216,-3.8359,-3.8405,-3.8392,-3.8614,-3.8691,-3.8846,-3.8876,-3.8925,-3.8954,-3.8926,-3.9058,-3.9069,-3.908,-3.9121,-3.9137,-3.8952,-3.8952,-3.8952,-3.8952,0,-3.7769,-3.7876,-3.7947,-3.8085,-3.8161,-3.8267,-3.8346,-3.8416,-3.8448,-3.8507,-3.8642,-3.8735,-3.8856,-3.8896,-3.8928,-3.9055,-3.9045,-3.9044,-3.9019,-3.9094,-3.9134,-3.915,-3.8953,-3.8953,-3.8953,-3.8952,0,0,-3.7855,-3.8027,-3.8051,-3.8114,-3.8245,-3.8329,-3.8435,-3.8554,-3.8611,-3.8708,-3.8798,-3.8947,-3.8946,-3.9017,-3.9058,-3.9123,-3.9212,-3.9114,-3.9118,-3.9128,-3.9355,-3.9354,-3.9372,-3.9225,-3.9228,-3.9231,-3.9346,0,-3.7965,-3.8158,-3.8218,-3.8379,-3.8478,-3.8517,-3.861,-3.8699,-3.8757,-3.8849,-3.8912,-3.9016,-3.9009,-3.9051,-3.9117,-3.9187,-3.9258,-3.918,-3.9307,-3.9311,-3.9278,-3.9393,-3.9393,-3.9497,-3.9362,-3.9364,-3.9366,0,-3.812,-3.822,-3.839,-3.8507,-3.8551,-3.8633,-3.8746,-3.8834,-3.8935,-3.8972,-3.905,-3.9086,-3.9197,-3.9165,-3.9318,-3.9263,-3.9319,-3.936,-3.9366,-3.938,-3.9343,-3.9408,-3.9532,-3.9547,-3.9392,-3.939,-3.9388,0,-3.8164,-3.8341,-3.8466,-3.8518,-3.8658,-3.8714,-3.8775,-3.8874,-3.8941,-3.9039,-3.9083,-3.9192,-3.9251,-3.9334,-3.9398,-3.9369,-3.9544,-3.9518,-3.9577,-3.9575,-3.9611,-3.9608,-3.9744,-3.9649,-3.9648,-3.9648,-3.9648,0,-3.828,-3.8383,-3.8487,-3.8564,-3.8679,-3.8746,-3.8858,-3.892,-3.9008,-3.9095,-3.9136,-3.9217,-3.9296,-3.9388,-3.9438,-3.9555,-3.9582,-3.9614,-3.9626,-3.9611,-3.9606,-3.9648,-3.9642,-3.9652,-3.9651,-3.9651,-3.965,0,-3.8349,-3.8423,-3.8561,-3.8682,-3.8715,-3.8794,-3.8897,-3.8972,-3.9031,-3.9142,-3.9171,-3.9264,-3.9373,-3.9445,-3.9584,-3.9618,-3.9746,-3.9756,-3.9712,-3.9718,-3.9771,-3.9765,-3.9939,-3.9964,-3.9851,-3.9852,-3.9853,0,-3.8418,-3.8498,-3.8627,-3.8689,-3.8751,-3.885,-3.8919,-3.8988,-3.9057,-3.9177,-3.9237,-3.9349,-3.9443,-3.9615,-3.9694,-3.98,-3.9813,-3.9866,-3.9829,-3.981,-3.9813,-3.9807,-3.9814,-3.9872,-3.9873,-3.9874,-3.9874,0,-3.8533,-3.8565,-3.8663,-3.8773,-3.8854,-3.8944,-3.9034,-3.9082,-3.9166,-3.9242,-3.9354,-3.9427,-3.9569,-3.9679,-3.9792,-3.9853,-3.9877,-3.9885,-3.9904,-3.9889,-3.9859,-3.9875,-3.9727,-3.9881,-3.988,-3.988,-3.988,-3.9879,-3.8604,-3.8676,-3.8778,-3.8885,-3.8959,-3.9042,-3.9118,-3.9186,-3.9282,-3.9403,-3.9438,-3.9555,-3.9652,-3.9807,-3.9869,-3.9961,-3.9955,-3.9982,-3.9989,-3.9995,-3.9995,-3.9845,-3.9982,-3.9982,-3.9982,-3.9981,-3.9981,0,-3.872,-3.8787,-3.8884,-3.9009,-3.9092,-3.9109,-3.9208,-3.9277,-3.938,-3.9469,-3.956,-3.9688,-3.9794,-3.9881,-3.9991,-4.0047,-4.0061,-4.0073,-4.0069,-4.0083,-3.9994,-3.9967,-4.006,-4.006,-4.006,-4.006,-4.006,-4.006,-3.879,-3.8912,-3.8956,-3.9115,-3.9181,-3.9297,-3.9352,-3.9427,-3.9499,-3.964,-3.973,-3.9786,-3.9873,-3.9989,-4.0087,-4.011,-4.0147,-4.0158,-4.0182,-4.0098,-4.0089,-4.0081,-4.0055,-4.0165,-4.0166,-4.0263,-4.0264,-4.0265]},{"header":{"parameterUnit":"m.s-1","parameterCategory":1,"la1":30.2991,"la2":30.254,"lo1":-89.0895,"lo2":-89.0444,"dy":0.0017,"dx":0.0017,"nx":28,"ny":28,"refTime":"2023-09-03T09:00:00:Z","depth":0,"parameterNumber":3,"parameterNumberName":"V-component_of_WINDS"},"data":[0,0,0,0,0,0,0,0,0,0,0,0,0,0,0,0,0,0,0,0,0,0,0,0,0,0,0,0,0,0,0,0,0,0,0,0,0,0,0,0,0,0,0,0,0,0,0,0,0,0,0,0,0,0,0,0,0,0,4.2582,4.2584,0,4.272,4.2722,4.2723,4.2733,4.2732,4.273,4.2729,4.2861,4.2866,4.2871,0,0,0,0,0,0,0,0,0,0,0,0,0,4.2318,4.2323,4.2582,4.2584,4.2586,4.272,4.2722,4.2724,4.2733,4.2731,4.273,4.2728,4.286,4.2865,4.2871,0,0,0,0,0,0,0,0,0,0,0,0,0,4.2442,4.2324,4.2582,4.2607,4.261,4.272,4.2722,4.2724,4.2734,4.2731,4.2729,4.2727,4.2858,4.2865,4.2872,4.2963,0,0,4.2895,4.2898,0,0,0,0,0,0,0,0,4.2435,4.2451,4.2601,4.2605,4.261,4.2707,4.2677,4.2804,4.2734,4.2687,4.2729,4.2726,4.2811,4.2822,4.2853,4.2969,4.2975,4.2895,4.29,4.2903,4.2905,0,0,0,0,0,0,0,4.2426,4.2445,4.2636,4.2603,4.2609,4.2608,4.2623,4.2701,4.276,4.2691,4.2692,4.2708,4.2813,4.2846,4.2856,4.2977,4.2895,4.2902,4.2906,4.2909,4.3173,4.3175,0,0,0,0,0,0,4.2414,4.2438,4.2632,4.2641,4.2515,4.2615,4.2632,4.2678,4.2759,4.2769,4.271,4.2708,4.2834,4.2847,4.2861,4.2972,4.2903,4.291,4.2914,4.317,4.3173,4.3176,0,0,0,0,0,0,4.2408,4.2431,4.2626,4.254,4.2565,4.2622,4.2674,4.2682,4.2715,4.2774,4.2783,4.2734,4.2833,4.285,4.2938,4.2976,4.2913,4.292,4.3167,4.3171,4.3175,4.3194,0,0,0,0,0,0,4.2401,4.2429,4.2466,4.2541,4.2569,4.2704,4.2676,4.2686,4.2729,4.2727,4.2798,4.2808,4.2833,4.2927,4.2945,4.2985,4.2926,4.3164,4.3169,4.3174,4.319,4.3198,4.3205,0,0,0,0,0,4.2391,4.2465,4.2468,4.2492,4.2618,4.2706,4.2722,4.2752,4.2732,4.2768,4.2806,4.2805,4.2969,4.2936,4.2956,4.2999,4.3162,4.3168,4.3173,4.3187,4.3197,4.3205,0,0,0,0,0,0,4.239,4.2475,4.248,4.258,4.2636,4.2708,4.2755,4.2761,4.2822,4.2818,4.2849,4.2865,4.2951,4.2984,4.2945,4.3091,4.3063,4.3073,4.3066,4.3076,4.3083,4.3073,4.2932,0,0,0,0,0,4.2403,4.247,4.2539,4.2621,4.2649,4.2697,4.2737,4.2755,4.2813,4.2836,4.288,4.2934,4.2998,4.3039,4.31,4.3195,4.3209,4.3235,4.3242,4.3248,4.3256,4.3307,4.3318,4.3195,4.3195,4.3195,0,0,4.2427,4.2481,4.2522,4.2622,4.2668,4.2734,4.2717,4.2788,4.2837,4.2846,4.2932,4.2966,4.3028,4.3119,4.3162,4.3149,4.3293,4.3255,4.3259,4.3264,4.3314,4.3325,4.3336,4.3199,4.3198,4.3198,0,0,4.2506,4.2555,4.2628,4.2675,4.2745,4.2776,4.2794,4.2865,4.2888,4.2976,4.2983,4.304,4.315,4.3193,4.323,4.3325,4.3326,4.3344,4.3381,4.343,4.344,4.3449,4.3481,4.3492,4.3352,4.3352,4.3352,0,4.2526,4.263,4.2664,4.2736,4.2778,4.2792,4.2865,4.2907,4.2993,4.302,4.3006,4.3144,4.3186,4.3287,4.331,4.334,4.3359,4.3335,4.3437,4.3446,4.3454,4.3485,4.3497,4.3353,4.3353,4.3353,4.3353,0,4.2651,4.2723,4.2773,4.2858,4.2907,4.2978,4.302,4.3064,4.3078,4.311,4.3197,4.3249,4.3321,4.3347,4.336,4.3449,4.3439,4.3431,4.3403,4.3467,4.3496,4.3509,4.3356,4.3355,4.3355,4.3354,0,0,4.2733,4.2837,4.2854,4.2893,4.2971,4.3025,4.3096,4.317,4.3206,4.3264,4.3323,4.3415,4.3408,4.3449,4.3467,4.351,4.358,4.3496,4.3498,4.3508,4.3679,4.3685,4.3698,4.3582,4.3584,4.3586,4.3674,0,4.2819,4.295,4.2982,4.3092,4.3157,4.3171,4.3232,4.3285,4.3317,4.3374,4.3407,4.3472,4.3458,4.3483,4.3526,4.3562,4.3615,4.3557,4.3634,4.3636,4.3617,4.3714,4.372,4.38,4.3686,4.3688,4.3689,0,4.2938,4.3001,4.3119,4.3188,4.3216,4.3272,4.3341,4.3397,4.3456,4.3475,4.3522,4.3536,4.3607,4.3577,4.3674,4.3634,4.3667,4.3689,4.3693,4.37,4.3666,4.3722,4.3827,4.3838,4.3708,4.3706,4.3705,0,4.2984,4.3098,4.3183,4.3216,4.3299,4.3337,4.3373,4.3431,4.3472,4.3532,4.3558,4.3624,4.366,4.3709,4.3739,4.3715,4.3833,4.3806,4.3849,4.3848,4.3872,4.387,4.3982,4.3896,4.3896,4.3896,4.3895,0,4.3076,4.3147,4.3205,4.3257,4.3336,4.3371,4.3447,4.3482,4.3533,4.359,4.3605,4.3657,4.3694,4.3751,4.3774,4.385,4.3866,4.3882,4.3887,4.388,4.3878,4.3902,4.3896,4.3899,4.3898,4.3898,4.3897,0,4.3141,4.3183,4.3276,4.3348,4.3368,4.3422,4.3482,4.3531,4.3563,4.3635,4.3653,4.3703,4.377,4.3806,4.3889,4.3905,4.3989,4.3992,4.397,4.3972,4.4013,4.4008,4.4142,4.4161,4.4064,4.4065,4.4065,0,4.3197,4.3252,4.333,4.3371,4.3408,4.3473,4.3516,4.3552,4.3595,4.3667,4.3707,4.3776,4.3833,4.3939,4.398,4.4044,4.4047,4.409,4.4056,4.4047,4.4046,4.4042,4.4046,4.4095,4.4096,4.4097,4.4097,0,4.3291,4.3309,4.3373,4.3443,4.3495,4.3551,4.3607,4.3638,4.3682,4.373,4.3801,4.3845,4.3931,4.3998,4.4065,4.4098,4.4104,4.4108,4.4121,4.4114,4.4098,4.4106,4.3985,4.4104,4.4104,4.4103,4.4103,4.4102,4.3352,4.3401,4.3464,4.3534,4.358,4.3631,4.3681,4.372,4.3781,4.3855,4.3872,4.3946,4.4001,4.4092,4.4128,4.4184,4.4175,4.4194,4.4198,4.4202,4.4203,4.4091,4.4196,4.4196,4.4196,4.4196,4.4195,0,4.3446,4.3487,4.3551,4.363,4.3684,4.3688,4.3749,4.3793,4.3859,4.3912,4.3968,4.4048,4.4113,4.416,4.4225,4.4261,4.4265,4.4277,4.4274,4.4281,4.4209,4.419,4.4272,4.4272,4.4272,4.4272,4.4272,4.4272,4.3501,4.3585,4.361,4.3715,4.3755,4.383,4.3864,4.3911,4.3953,4.4043,4.4098,4.4129,4.4179,4.4248,4.4307,4.4318,4.4341,4.4352,4.4364,4.4295,4.4286,4.4279,4.4261,4.4357,4.4357,4.4431,4.4432,4.4433]}]]